Regional Weather Roundup
Issued by NWS Newport/Morehead, NC

Current Version | Previous Version | Graphics & Text | Print | Product List | Glossary On
Versions: 1 2 3 4 5 6 7 8 9 10 11 12 13 14 15 16 17 18 19 20 21 22 23 24 25 26 27 28 29 30 31 32 33 34 35 36 37 38 39 40 41 42 43 44 45 46 47 48 49 50
000 ASUS42 KMHX 200425 RWRMHX WEATHER ROUNDUP FOR EASTERN NORTH CAROLINA NATIONAL WEATHER SERVICE NEWPORT/MOREHEAD CITY NC 1100 PM EST SUN FEB 19 2017 NOTE: "FAIR" INDICATES FEW OR NO CLOUDS BELOW 12,000 FEET WITH NO SIGNIFICANT WEATHER AND/OR OBSTRUCTIONS TO VISIBILITY NCZ015>017-031-032-045>047-102-103-200500- NORTH COAST CITY SKY/WX TMP DP RH WIND PRES REMARKS EDENTON CLEAR 51 46 83 CALM 30.04S ELIZABETH CITY CLEAR 49 45 86 SW3 30.03R KITTY HAWK NOT AVBL MANTEO CLEAR 47 45 93 CALM 30.04S $$ NCZ045>047-081-094-103-104-200500- CENTRAL COAST CITY SKY/WX TMP DP RH WIND PRES REMARKS FRISCO CLEAR 51 46 83 N3 30.04R $$ NCZ095-097-098-100-101-200500- SOUTHERN COAST CITY SKY/WX TMP DP RH WIND PRES REMARKS BEAUFORT CLEAR 52 49 89 CALM 30.05R CEDAR ISLAND NOT AVBL JACKSONVILLE CLEAR 53 47 79 CALM 30.05R PINEY ISLAND CLEAR N/A N/A N/A CALM 30.04R WILMINGTON CLEAR 52 47 83 CALM 30.06R $$ NCZ011>013-027>030-043-044-078>080-089-090>093-098-200500- COASTAL PLAIN CITY SKY/WX TMP DP RH WIND PRES REMARKS AHOSKIE N/A 51 44 78 CALM 30.04F CLINTON PTCLDY 50 47 88 CALM 30.07S ELIZABETHTOWN PTCLDY 54 47 75 CALM 30.07S GOLDSBORO CLEAR 54 49 82 CALM 30.04R GREENVILLE PTCLDY 46 36 66 CALM 30.06S HAVELOCK CLEAR 50 44 80 W3 30.06R KENANSVILLE NOT AVBL KINSTON CLEAR 51 44 79 CALM 30.06S NEW BERN CLEAR 52 47 83 CALM 30.06R RICHLANDS PTCLDY 46 44 93 CALM 30.06R ROCKY MOUNT CLEAR 56 45 66 NW3 30.06R WASHINGTON CLEAR 49 43 80 CALM 30.05R WHITEVILLE CLEAR 53 46 78 CALM 30.07S $$ AMZ130-135-150-152-154-156-158-170-250-252-270-ANZ085-086-088-633-658-670-200500- MARINE OBSERVATIONS STATION/POSITION TIME TEMP WIND PRES WAVE SWELL AIR SEA DIR/SP/G HT/PER HT/PER (UTC) (F) (DEG/KT/KT) (MB) (FT/S) (FT/S) CHESAPEAKE LIGHT NOT AVBL 64 E VA BEACH 0350 52 51 250/ 4/ 4 1016.1 2/ 7 2/ 7 DUCK 0400 57 48 200/ 4/ 4 1016.4 2 E DUCK 0400 49 N/A 1/ 7 OREGON INLET 0400 52 51 CALM / 2 1017.1 13E OREGON INLT NOT AVBL HATTERAS CG 0400 55 57 320/ 3/ 4 1016.8 DIAMOND BUOY 0350 63 67 360/ 8/ 10 1016.9 2/ 8 2/ 8 CAPE LOOKOUT 0400 58 280/ 5/ 5 1017.0 BEAUFORT LAB 0400 56 53 360/ 3/ 3 1016.5 30 SE NEW RVR IN 0408 63 320/ 8/ 12 1017.5 30 SE NEW RVR IN 0343 63 N/A 2/ 6 27 SE WRIGHTSVLE 0408 60 59 260/ 6/ 10 1016.8 5 SE WRIGHTSVLE 0408 58 56 260/ 6/ 8 1017.6 225 S CAPE HAT 0350 70 71 340/ 16/ 21 1015.4 5/ 7 2/14 41 SE CHARLESTON 0350 66 69 330/ 8/ 10 1018.3 1/ 6 2/ 6 $$

USA.gov is the U.S. government's official web portal to all federal, state and local government web resources and services.